Temperature
13 13 12 12 12 12 12 12 12 12 13 13 13 13 13 13 12 12 12 11 11 11 11 11 11 12 11 11 11 12 12 12 12 12 12 12 12 12 12 12 12 11 11
13 12 12 12 12 12 12 12 12 12 13 13 13 13 12 12 11 11 11 11 10 10 10 11 11 11 11 11 11 11 11 11 10 10 10 11 11 11 11 11 11 12 11
12 12 12 12 12 12 12 12 12 12 12 12 12 12 11 11 11 10 10 10 10 10 10 10 11 11 11 11 11 11 11 10 10 10 10 10 10 10 10 10 10 11 11
12 12 12 12 12 12 12 12 12 11 11 10 10 10 10 10 10 9 9 9 10 10 10 10 10 10 10 10 10 10 10 10 10 9 9 9 9 9 9 9 9 10 10
12 12 12 12 12 11 11 11 10 9 9 9 9 9 9 9 9 9 9 9 9 9 10 10 10 10 10 10 10 10 9 9 9 8 8 7 7 8 8 8 8 9 9
12 12 12 11 11 10 10 9 9 8 8 8 8 9 9 8 9 9 9 9 9 9 9 9 9 9 9 9 9 9 8 8 8 7 6 6 6 6 6 6 7 7 8
12 11 11 11 10 10 9 8 8 7 7 7 7 8 8 8 8 8 8 8 7 7 7 7 8 7 8 8 7 7 7 6 6 5 4 4 4 4 5 5 6 6 6
11 11 10 10 9 9 8 7 7 7 6 6 6 6 5 6 6 6 6 6 6 6 6 6 6 5 5 5 5 5 5 4 3 2 2 3 3 3 4 4 5 5 5
11 10 10 9 8 8 7 6 6 6 6 5 5 4 3 2 2 4 3 5 4 4 4 4 4 3 2 2 2 2 2 1 1 1 1 2 2 2 3 3 4 4 4
10 9 9 8 8 7 6 6 5 5 5 5 4 4 3 2 1 1 2 3 3 3 3 2 2 1 1 -0 -0 -1 -1 -1 -1 -0 0 0 1 1 2 2 2 3 3
9 9 8 8 7 6 5 5 5 4 4 4 4 3 3 2 1 -1 -1 -1 0 1 2 1 1 0 -1 -1 -2 -2 -2 -2 -2 -2 -1 -1 -0 0 0 1 1 1 1
9 8 8 7 6 5 5 4 4 4 3 3 3 2 1 0 -0 -1 -2 -2 -2 -2 -2 -1 -1 -1 -2 -3 -3 -3 -4 -3 -3 -3 -3 -2 -2 -1 -1 -1 -1 -0 -0
8 7 7 6 5 5 4 4 3 3 3 3 2 2 1 0 -1 -1 -2 -3 -3 -3 -3 -3 -3 -3 -3 -4 -4 -5 -5 -5 -4 -4 -4 -3 -3 -3 -2 -2 -2 -2 -1
7 7 6 5 5 4 3 3 3 3 3 2 2 1 1 -0 -1 -2 -3 -4 -4 -4 -4 -4 -4 -4 -5 -5 -5 -5 -5 -5 -5 -5 -5 -4 -4 -4 -4 -3 -3 -3 -2
7 6 5 5 4 3 3 3 3 2 2 2 1 0 -0 -1 -2 -3 -4 -4 -6 -6 -5 -5 -5 -5 -5 -6 -6 -6 -6 -6 -6 -6 -5 -5 -5 -5 -4 -4 -4 -4 -3
6 5 5 4 3 3 3 2 2 1 1 1 -0 -1 -2 -3 -4 -4 -4 -5 -6 -6 -6 -6 -6 -6 -6 -6 -6 -6 -6 -6 -6 -6 -6 -6 -5 -5 -5 -5 -5 -5 -4
5 5 4 3 3 2 2 2 1 1 -0 -1 -2 -3 -4 -4 -5 -5 -5 -6 -6 -6 -7 -6 -6 -6 -6 -6 -6 -6 -7 -7 -7 -7 -7 -7 -6 -6 -6 -6 -6 -5 -5
4 3 3 2 2 2 1 1 0 -0 -1 -2 -3 -4 -5 -5 -6 -6 -6 -7 -7 -7 -7 -7 -7 -7 -7 -7 -7 -7 -7 -8 -8 -8 -8 -7 -7 -7 -7 -7 -6 -6 -6
3 2 2 2 1 1 1 0 -1 -1 -2 -3 -4 -5 -6 -6 -7 -7 -7 -7 -7 -7 -7 -7 -7 -7 -7 -7 -7 -8 -8 -8 -9 -9 -8 -8 -8 -8 -8 -7 -7 -7 -7
2 2 1 1 1 0 -0 -0 -1 -2 -3 -4 -5 -6 -6 -7 -7 -8 -8 -8 -8 -8 -8 -8 -7 -7 -7 -7 -8 -8 -9 -9 -9 -9 -9 -9 -9 -9 -8 -8 -8 -8 -8
1 1 1 0 -0 -0 -1 -1 -3 -4 -5 -5 -6 -6 -7 -7 -8 -8 -8 -8 -8 -8 -8 -8 -8 -7 -8 -8 -9 -9 -9 -9 -9 -9 -10 -10 -10 -10 -10 -9 -9 -9 -9
1 0 -0 -0 -1 -1 -2 -3 -4 -5 -6 -6 -7 -7 -7 -8 -8 -8 -8 -8 -8 -8 -8 -8 -8 -8 -9 -9 -9 -10 -10 -10 -10 -10 -10 -10 -10 -10 -10 -10 -10 -9 -9
0 -0 -1 -1 -2 -2 -3 -4 -5 -6 -6 -7 -7 -8 -8 -9 -9 -9 -9 -8 -8 -8 -8 -8 -9 -9 -10 -10 -10 -10 -10 -10 -10 -10 -11 -11 -10 -10 -10 -10 -10 -9 -9
-1 -1 -2 -2 -3 -3 -4 -5 -6 -7 -7 -8 -8 -9 -9 -9 -9 -9 -9 -8 -8 -9 -9 -10 -10 -10 -10 -10 -10 -10 -11 -11 -11 -11 -11 -11 -11 -10 -10 -9 -8 -8 -8
-1 -2 -2 -3 -4 -4 -5 -6 -8 -8 -8 -8 -9 -9 -9 -9 -9 -9 -8 -9 -9 -10 -10 -10 -10 -10 -10 -11 -11 -11 -11 -11 -11 -11 -11 -11 -11 -11 -10 -9 -8 -8 -8
-2 -3 -3 -4 -4 -5 -6 -8 -9 -9 -9 -9 -9 -9 -9 -10 -9 -9 -9 -10 -10 -10 -10 -10 -10 -10 -10 -10 -11 -11 -12 -12 -12 -11 -10 -11 -11 -11 -10 -9 -9 -9 -9
Wind_Speed
4 3 3 5 6 7 6 5 5 5 5 7 8 7 6 8 9 11 11 16 18 19 20 22 22 22 20 18 18 17 17 18 19 21 22 23 25 28 30 32 32 33 33
5 5 6 5 6 8 8 7 5 6 6 5 8 6 6 8 9 10 11 14 17 19 21 22 24 25 24 24 23 22 22 21 21 21 21 21 22 22 24 27 31 33 35
11 7 7 6 5 8 9 7 7 6 7 7 8 8 6 6 7 8 10 11 13 15 20 22 24 24 23 24 24 24 24 24 23 23 23 23 22 22 22 22 23 25 30
13 9 7 6 7 9 6 5 6 5 6 7 7 7 6 5 6 6 7 9 11 12 16 21 22 22 22 23 24 24 25 24 24 24 24 23 23 23 24 24 23 23 23
14 10 6 5 8 6 6 5 5 4 5 7 7 6 6 4 4 6 7 8 11 12 13 18 22 21 21 23 24 25 25 25 25 24 24 24 24 24 24 25 24 24 24
13 11 6 6 7 5 6 5 5 4 3 5 5 7 6 3 3 6 9 7 11 13 16 18 17 18 21 24 25 27 27 26 26 26 25 25 25 24 24 25 25 25 24
13 9 5 5 5 6 5 5 4 4 4 5 4 5 5 5 3 8 7 6 8 10 16 16 16 13 15 23 26 29 28 27 27 26 26 26 26 26 26 26 26 27 26
11 8 6 6 6 5 6 6 5 3 3 4 3 3 5 6 5 9 4 5 7 8 10 13 14 11 14 14 22 27 26 26 27 27 27 28 28 28 28 29 28 28 28
11 10 8 5 6 5 4 4 4 4 3 3 3 4 4 4 7 4 4 4 7 7 7 6 9 11 14 14 15 18 24 26 28 29 29 29 29 30 30 30 31 31 30
10 10 8 6 5 4 4 4 3 3 2 3 3 2 1 3 4 6 5 6 7 8 8 9 8 9 13 12 14 19 25 28 29 29 30 30 30 31 31 32 32 32 32
8 8 8 5 4 3 3 3 4 4 3 2 2 3 2 3 5 5 9 8 8 7 7 8 7 7 10 10 9 18 27 29 29 30 31 31 32 32 32 32 32 32 33
5 5 5 4 3 2 3 3 3 4 4 3 3 3 3 4 5 5 9 13 10 7 8 7 8 8 7 7 14 24 28 29 30 31 32 32 32 33 33 33 33 33 33
2 2 2 2 2 3 3 3 4 5 4 4 4 4 4 5 5 6 10 15 16 9 6 6 7 6 7 8 10 23 26 28 29 30 32 34 34 34 33 33 33 33 33
3 1 1 2 3 4 4 4 4 4 4 5 6 6 5 5 4 5 7 13 18 13 7 7 4 6 6 7 13 25 17 26 29 31 33 34 34 33 33 33 33 32 33
2 2 2 3 4 4 5 5 4 6 6 5 6 6 4 4 5 6 6 7 10 18 18 8 6 6 6 7 16 15 13 24 31 32 32 33 34 34 33 32 33 33 34
3 2 3 4 5 5 6 5 6 7 7 7 6 6 5 5 6 6 7 7 8 13 17 12 9 8 9 13 20 15 14 29 29 31 33 33 34 34 33 33 34 35 36
3 3 4 5 6 6 7 7 7 8 8 8 7 6 7 8 7 7 8 8 9 10 16 18 14 10 10 11 13 8 12 10 14 28 33 35 35 35 35 35 36 36 36
3 3 4 6 7 7 7 8 9 9 8 8 8 7 7 9 10 9 9 9 11 11 13 18 17 13 13 13 11 9 12 14 11 28 34 34 34 34 35 35 35 35 34
3 4 5 6 7 8 8 8 8 8 8 8 8 7 7 9 11 10 12 12 10 12 10 15 18 15 14 11 11 12 14 12 17 21 26 28 30 33 34 35 34 34 34
4 5 6 7 7 8 8 8 8 9 9 8 7 7 8 9 11 12 12 10 11 13 12 14 16 15 13 9 10 13 17 10 12 15 21 24 27 31 32 33 34 34 33
5 6 6 7 8 8 8 11 9 9 9 9 8 8 9 15 20 17 16 14 14 14 15 15 16 16 13 11 12 13 18 16 12 11 12 13 13 13 16 24 29 31 32
5 6 6 7 8 10 17 21 17 10 9 9 9 9 11 14 18 24 28 27 25 20 18 17 17 17 16 14 14 16 17 19 17 8 11 15 12 15 13 12 25 33 33
5 6 7 7 8 11 20 21 22 13 9 9 10 11 13 15 19 13 21 26 23 29 26 18 17 17 18 18 19 19 18 19 20 15 14 18 12 15 14 18 31 33 34
5 5 7 8 8 11 20 21 23 11 9 9 10 11 12 12 15 20 18 17 15 14 17 15 14 15 16 15 16 18 19 18 16 13 12 17 15 15 17 14 28 33 34
5 5 6 8 8 11 18 21 22 9 9 10 10 10 13 13 24 30 22 18 15 13 21 26 26 25 29 29 23 16 15 14 17 15 10 12 15 15 15 16 20 29 30
5 7 7 7 8 9 16 22 22 8 9 10 9 9 17 22 28 30 19 14 16 18 17 17 18 21 18 19 24 16 14 15 16 13 9 7 13 12 10 9 9 10 15
Wind_Direction
127 96 71 55 45 48 51 41 30 23 16 7 6 1 356 357 354 353 353 1 9 13 14 15 12 7 354 343 334 329 323 315 308 303 298 294 287 277 267 260 257 255 254
94 79 66 54 47 48 53 49 34 29 17 3 359 352 352 355 354 358 8 14 14 17 18 18 16 15 14 12 8 6 2 358 352 346 336 326 314 305 297 286 273 263 257
87 82 72 60 44 46 51 47 32 31 22 7 351 345 349 351 354 7 14 14 10 15 19 15 12 9 8 4 2 360 358 355 351 345 340 335 331 324 315 306 300 290 276
89 83 74 60 51 48 42 43 27 22 14 359 340 330 339 342 355 12 7 12 12 14 14 12 10 6 5 2 0 358 355 351 347 343 338 334 329 325 321 315 309 304 299
85 83 72 59 58 50 38 36 34 28 11 350 325 317 327 333 354 8 3 12 9 9 10 4 3 360 0 359 357 352 349 344 341 337 334 331 327 324 320 317 313 309 305
82 80 72 60 59 54 38 27 19 13 9 340 319 314 312 314 354 9 5 4 357 4 4 359 355 350 355 354 351 346 342 337 334 330 327 325 323 320 315 312 311 309 308
78 75 68 56 52 58 47 31 12 1 350 344 341 322 323 334 353 3 354 2 353 358 353 347 343 343 351 348 345 340 336 332 329 325 322 319 316 313 311 308 305 302 302
73 73 66 61 52 52 41 33 26 8 347 3 357 349 342 336 347 326 321 357 354 344 334 336 329 336 344 342 334 332 330 329 326 322 318 314 310 308 305 302 300 298 296
73 72 70 68 58 54 41 25 24 27 348 339 13 61 10 316 311 297 319 338 332 314 316 316 315 325 326 325 321 325 326 325 321 317 314 311 308 305 302 300 298 296 295
73 70 69 67 59 51 35 6 23 3 11 358 352 45 211 243 298 308 307 313 309 309 300 307 306 301 305 305 314 326 323 320 315 312 310 308 306 303 301 298 296 296 295
68 67 64 58 45 31 13 3 2 6 9 2 339 319 297 261 234 263 297 306 306 296 292 291 292 290 294 299 314 319 319 315 312 310 308 305 302 300 298 297 296 295 294
60 54 61 52 34 9 350 344 344 350 345 340 327 313 301 291 297 284 297 306 300 287 277 280 285 285 288 305 320 317 314 311 309 307 305 303 301 299 298 297 295 293 291
80 44 47 38 13 347 340 340 340 337 329 325 308 292 282 273 279 291 306 310 306 296 264 251 254 265 287 300 304 308 306 306 306 304 303 301 299 298 296 295 292 291 289
144 115 64 29 8 357 347 340 330 322 316 304 305 300 290 285 290 295 300 310 310 304 287 269 250 246 258 266 285 302 300 300 301 301 300 298 296 295 293 291 289 288 287
130 78 37 14 358 346 335 333 320 310 306 294 295 296 293 290 292 287 287 289 297 305 303 294 284 245 249 263 287 292 278 292 298 299 299 298 294 290 288 288 289 289 288
80 46 11 360 346 334 329 327 315 304 301 297 298 302 300 294 292 292 290 286 282 288 295 298 294 278 275 291 295 292 285 295 297 298 297 296 293 291 289 289 289 289 288
67 22 353 344 335 327 325 319 307 302 299 298 299 303 295 297 301 301 296 291 285 281 289 297 298 294 283 279 286 270 277 275 284 294 296 294 291 290 289 289 289 288 286
32 353 339 336 330 325 318 308 302 307 300 297 292 293 293 311 309 306 300 291 289 281 283 293 300 300 293 289 290 286 298 296 288 293 294 293 292 291 291 290 289 287 285
358 337 337 333 325 319 310 301 295 294 293 288 285 284 289 303 307 303 298 294 291 295 289 294 296 297 294 295 300 298 292 289 294 296 297 296 293 292 291 290 290 290 289
342 338 338 332 325 315 304 300 301 298 295 288 278 274 279 291 298 299 300 295 303 302 297 295 296 297 295 295 296 304 305 292 291 294 292 291 291 293 291 292 290 289 287
352 347 343 334 328 322 321 325 319 311 307 299 285 275 282 304 309 309 309 311 307 303 304 304 303 302 303 308 306 304 303 301 290 286 288 286 286 282 284 284 285 284 282
355 353 342 328 326 335 334 336 335 324 318 313 306 301 299 305 307 314 312 308 307 308 308 305 305 306 308 305 304 302 303 302 300 292 286 292 287 284 281 276 280 282 282
348 337 326 321 319 323 339 340 338 342 334 323 314 310 313 315 316 300 301 307 307 306 306 307 306 304 303 306 305 303 301 299 297 299 298 294 287 283 283 282 285 284 283
331 316 311 312 313 326 340 340 340 345 323 311 306 302 302 304 308 311 310 311 305 306 305 305 297 299 303 302 300 301 299 297 293 289 284 288 291 288 288 283 285 283 282
316 306 304 309 314 322 337 337 336 317 310 305 298 300 310 308 310 316 320 317 318 312 312 311 311 310 309 309 308 307 303 302 299 297 288 283 288 290 287 283 280 282 283
301 305 308 311 312 312 329 335 331 313 310 310 304 299 314 318 318 323 326 325 320 315 317 319 315 311 307 304 308 306 301 297 296 297 290 279 289 296 293 270 262 269 278
Height
1506 1506 1506 1505 1504 1503 1501 1500 1499 1497 1496 1494 1492 1489 1487 1485 1482 1480 1478 1476 1474 1472 1470 1469 1467 1465 1464 1464 1463 1461 1460 1458 1457 1456 1455 1453 1452 1451 1451 1451 1450 1450 1451
1505 1505 1504 1504 1503 1501 1500 1499 1497 1495 1493 1490 1488 1486 1483 1481 1478 1476 1474 1473 1471 1470 1468 1466 1464 1462 1460 1459 1457 1455 1454 1452 1451 1449 1448 1447 1445 1444 1443 1442 1442 1442 1442
1504 1504 1503 1503 1502 1500 1499 1497 1495 1492 1489 1486 1484 1482 1479 1476 1474 1473 1472 1470 1469 1467 1465 1463 1461 1459 1457 1455 1452 1450 1448 1447 1445 1443 1442 1441 1439 1438 1436 1435 1434 1433 1433
1503 1503 1503 1502 1501 1499 1497 1494 1491 1488 1485 1482 1480 1478 1475 1473 1471 1470 1469 1468 1466 1464 1461 1459 1457 1454 1452 1450 1447 1445 1443 1441 1439 1437 1436 1434 1433 1431 1430 1429 1428 1426 1425
1502 1502 1502 1501 1499 1497 1494 1491 1488 1484 1481 1479 1477 1475 1472 1470 1469 1468 1466 1464 1462 1459 1457 1454 1452 1449 1446 1443 1441 1438 1436 1434 1432 1430 1428 1427 1425 1424 1423 1421 1420 1419 1418
1502 1502 1501 1499 1497 1495 1492 1489 1486 1482 1479 1476 1473 1471 1469 1467 1464 1464 1462 1460 1457 1454 1452 1449 1446 1443 1440 1437 1434 1431 1428 1426 1424 1422 1421 1419 1418 1416 1415 1413 1412 1411 1409
1501 1500 1499 1497 1495 1492 1489 1486 1483 1480 1476 1472 1469 1465 1464 1463 1460 1460 1457 1455 1452 1450 1447 1444 1440 1437 1433 1430 1427 1424 1421 1418 1416 1415 1413 1411 1410 1408 1407 1405 1404 1402 1401
1500 1499 1497 1495 1493 1490 1487 1484 1481 1477 1474 1470 1466 1462 1459 1456 1456 1455 1451 1449 1446 1444 1441 1437 1434 1431 1427 1423 1420 1417 1414 1411 1409 1407 1405 1404 1402 1400 1398 1397 1395 1394 1392
1498 1497 1495 1493 1491 1488 1485 1482 1478 1475 1472 1470 1467 1465 1461 1456 1450 1445 1444 1442 1440 1437 1434 1431 1428 1425 1421 1417 1414 1410 1408 1404 1402 1400 1398 1395 1393 1391 1389 1387 1385 1384 1382
1496 1495 1493 1491 1489 1486 1483 1480 1477 1474 1471 1468 1466 1463 1462 1459 1453 1443 1437 1435 1433 1430 1427 1425 1421 1418 1415 1411 1408 1404 1401 1398 1395 1392 1389 1387 1384 1381 1379 1377 1375 1372 1370
1494 1492 1491 1489 1486 1483 1480 1478 1475 1472 1469 1466 1463 1460 1457 1455 1451 1445 1434 1428 1425 1423 1420 1417 1414 1411 1407 1404 1401 1397 1394 1390 1387 1384 1380 1377 1374 1372 1369 1366 1363 1361 1358
1491 1490 1488 1486 1483 1480 1478 1475 1472 1470 1467 1463 1460 1457 1453 1449 1445 1440 1431 1422 1417 1414 1412 1410 1407 1404 1401 1398 1394 1390 1386 1382 1378 1374 1370 1367 1364 1361 1358 1355 1352 1349 1347
1489 1487 1485 1482 1480 1477 1475 1472 1469 1466 1463 1459 1455 1452 1448 1445 1441 1436 1428 1417 1409 1404 1402 1400 1399 1397 1395 1391 1386 1382 1378 1374 1369 1365 1361 1358 1354 1350 1347 1343 1340 1338 1336
1486 1484 1482 1479 1476 1474 1471 1468 1465 1461 1458 1454 1450 1446 1442 1439 1435 1431 1425 1416 1403 1393 1392 1391 1390 1388 1386 1382 1378 1374 1369 1365 1361 1356 1352 1348 1343 1339 1335 1332 1329 1327 1324
1483 1481 1478 1476 1473 1470 1467 1464 1460 1457 1453 1449 1445 1440 1436 1432 1428 1424 1419 1413 1406 1392 1380 1380 1380 1378 1376 1372 1368 1365 1360 1356 1351 1347 1342 1337 1333 1328 1324 1321 1318 1315 1312
1479 1477 1475 1472 1470 1467 1463 1459 1455 1451 1447 1443 1439 1434 1430 1425 1420 1415 1410 1405 1401 1394 1380 1371 1370 1368 1365 1363 1360 1356 1350 1346 1341 1337 1332 1326 1321 1317 1313 1309 1306 1303 1299
1476 1474 1472 1469 1466 1462 1458 1454 1450 1446 1441 1437 1432 1428 1423 1418 1412 1407 1401 1397 1393 1389 1380 1368 1363 1359 1355 1350 1346 1343 1339 1334 1330 1326 1321 1315 1309 1305 1300 1296 1293 1289 1286
1473 1471 1468 1465 1461 1457 1453 1449 1444 1440 1435 1430 1426 1421 1416 1411 1405 1400 1395 1390 1386 1382 1376 1365 1356 1351 1346 1341 1335 1331 1328 1324 1320 1314 1308 1302 1297 1292 1287 1283 1280 1276 1273
1470 1467 1464 1461 1457 1452 1448 1443 1438 1434 1429 1424 1420 1415 1410 1405 1399 1394 1389 1384 1380 1375 1369 1361 1351 1345 1338 1333 1327 1321 1317 1311 1306 1301 1295 1290 1285 1280 1275 1271 1267 1263 1260
1466 1463 1460 1456 1452 1447 1442 1437 1432 1428 1423 1419 1414 1410 1405 1399 1393 1388 1383 1379 1373 1367 1360 1353 1344 1337 1331 1325 1320 1312 1303 1298 1293 1289 1284 1279 1274 1269 1264 1259 1255 1250 1247
1462 1459 1456 1452 1447 1442 1437 1432 1427 1422 1417 1412 1408 1404 1399 1395 1390 1385 1379 1373 1367 1360 1353 1345 1338 1330 1323 1318 1312 1305 1296 1288 1282 1279 1272 1266 1262 1256 1250 1246 1242 1237 1234
1459 1456 1451 1447 1442 1437 1432 1427 1422 1416 1412 1407 1402 1397 1393 1388 1383 1378 1373 1367 1361 1354 1346 1339 1331 1324 1317 1311 1304 1297 1289 1280 1270 1269 1263 1254 1252 1244 1239 1234 1229 1225 1222
1455 1451 1447 1442 1437 1432 1426 1421 1416 1411 1406 1401 1396 1391 1386 1381 1376 1369 1363 1358 1353 1347 1341 1334 1325 1317 1310 1303 1297 1289 1282 1275 1266 1259 1254 1243 1239 1233 1228 1222 1218 1213 1209
1451 1447 1442 1437 1432 1426 1421 1416 1411 1405 1400 1396 1391 1386 1380 1374 1368 1363 1356 1349 1343 1337 1332 1326 1319 1310 1304 1297 1291 1283 1274 1265 1257 1251 1247 1238 1228 1223 1216 1210 1205 1201 1196
1446 1442 1437 1432 1427 1421 1416 1411 1406 1400 1395 1390 1386 1381 1376 1369 1363 1357 1350 1341 1334 1328 1322 1316 1310 1303 1296 1289 1282 1275 1267 1259 1249 1241 1238 1231 1221 1213 1205 1198 1193 1190 1186
1441 1437 1433 1428 1422 1417 1412 1407 1403 1397 1390 1384 1379 1374 1370 1364 1357 1351 1343 1335 1327 1320 1313 1305 1299 1292 1286 1279 1274 1269 1262 1254 1244 1234 1228 1223 1214 1207 1195 1187 1183 1179 1174